{"data":{"norad_id":84575,"epoch":"2026-09-15T12:53:58.583040Z","epoch_age_seconds":447062,"freshness":"STALE","line1":"1 84575U          26258.53748360  .00000289  00000+0  14926-1 0  9999","line2":"2 84575  18.6640  64.7124 7131730 193.1629 127.3467  2.19911546 71559","mean_motion":2.19911546,"eccentricity":0.713173,"inclination_deg":18.664,"raan_deg":64.7124,"arg_perigee_deg":193.1629,"mean_anomaly_deg":127.3467,"bstar":0.014926,"rev_number":7155,"period_min":654.80872932429,"perigee_km":786.42838923977,"apogee_km":36414.696246452,"semimajor_km":24978.699317846,"source":"CELESTRAK","updated_at":"2026-09-20T09:00:32.443704Z"}}